Weather History for Monarch Pass, CO

Change the Weather History Date:

Sunday, November 18, 2012

  Actual Average (KGUC) Record (KGUC)
Temperature  
Mean Temperature 26 °F -  
Max Temperature 30 °F 38 °F 59 °F (2007)
Min Temperature 21 °F 12 °F -5 °F (2000)
Degree Days  
Heating Degree Days 40    
Moisture  
Dew Point 20 °F    
Average Humidity 82    
Maximum Humidity 100    
Minimum Humidity 60    
Precipitation  
Precipitation 0.00 in - - ()
Sea Level Pressure  
Sea Level Pressure 30.34 in    
Wind  
Wind Speed 28 mph (WSW)    
Max Wind Speed 47 mph    
Max Gust Speed 56 mph    
Averages and records for this station are not official NWS values.
T = Trace of Precipitation, MM = Missing Value Source: NWS Daily Summary

Daily Weather History Graph

Daily Weather History Graph

Search for Another Location

Airport:

Trip Planner

Search our weather history database for the weather conditions in past years. The results will help you decide how hot, cold, wet, or windy it might be!

Date:

Astronomy

Nov. 18, 2012 Rise Set
Actual Time 6:50 AM MST 4:49 PM MST
Civil Twilight 6:22 AM MST 5:18 PM MST
Nautical Twilight 5:50 AM MST 5:50 PM MST
Astronomical Twilight 5:18 AM MST 6:22 PM MST
Moon 11:20 AM MST (11/18) 10:11 PM MST (11/18)
Length of Visible Light 10h 56m
Length of Day
9h 59m
Waxing Crescent, 31% of the Moon is Illuminated
Nov 18
Waxing Crescent
Nov 20
First Quarter
Nov 28
Full
Dec 6
Last Quarter
Dec 13
New

Hourly Weather History & Observations

Time (MST) Temp. Windchill Dew Point Humidity Pressure Visibility Wind Dir Wind Speed Gust Speed Precip Events Conditions
12:15 AM 24.8 °F 9.6 °F 19.4 °F 80% 30.37 in - WSW 23.0 mph - N/A   Mostly Cloudy
12:35 AM 24.8 °F 9.6 °F 19.4 °F 80% 30.36 in - WSW 23.0 mph - N/A   Mostly Cloudy
12:55 AM 24.8 °F 10.3 °F 19.4 °F 80% 30.36 in - WSW 20.7 mph - N/A   Overcast
1:15 AM 23.0 °F 8.0 °F 19.4 °F 86% 30.35 in - WSW 20.7 mph - N/A   Scattered Clouds
1:35 AM 23.0 °F 8.0 °F 19.4 °F 86% 30.35 in - WSW 20.7 mph - N/A   Clear
1:55 AM 23.0 °F 8.3 °F 19.4 °F 86% 30.35 in - WSW 19.6 mph - N/A   Clear
2:15 AM 23.0 °F 7.6 °F 17.6 °F 80% 30.34 in - WSW 21.9 mph - N/A   Clear
2:35 AM 23.0 °F 7.2 °F 17.6 °F 80% 30.33 in - SW 23.0 mph - N/A   Clear
2:55 AM 23.0 °F 7.2 °F 17.6 °F 80% 30.32 in - SW 23.0 mph - N/A   Scattered Clouds
3:15 AM 23.0 °F - 17.6 °F 80% 30.32 in - North - - N/A   Scattered Clouds
3:35 AM 23.0 °F - 17.6 °F 80% 30.31 in - North - - N/A   Mostly Cloudy
3:55 AM 23.0 °F - 17.6 °F 80% 30.30 in - North - - N/A   Scattered Clouds
4:15 AM 23.0 °F - 17.6 °F 80% 30.31 in - North - - N/A   Mostly Cloudy
4:35 AM 23.0 °F - 17.6 °F 80% 30.31 in - North - - N/A   Overcast
4:55 AM 23.0 °F 5.4 °F 17.6 °F 80% 30.30 in - SW 29.9 mph - N/A   Overcast
5:15 AM 23.0 °F - 17.6 °F 80% 30.30 in - North - - N/A   Overcast
5:35 AM 23.0 °F - 17.6 °F 80% 30.30 in - North - - N/A   Overcast
5:55 AM 21.2 °F - 19.4 °F 93% 30.31 in - North - - N/A   Unknown
6:15 AM 21.2 °F - 19.4 °F 93% 30.30 in - North - - N/A   Overcast
6:35 AM 21.2 °F - 21.2 °F 100% 30.30 in - North - - N/A   Overcast
6:55 AM 23.0 °F - 21.2 °F 93% 30.30 in - North - - N/A   Overcast
7:15 AM 23.0 °F - 21.2 °F 93% 30.30 in - North - - N/A   Overcast
7:35 AM 23.0 °F - 21.2 °F 93% 30.30 in - North - - N/A   Overcast
7:55 AM 23.0 °F - 23.0 °F 100% 30.29 in - North - - N/A   Overcast
8:15 AM 23.0 °F - 23.0 °F 100% 30.30 in - North - - N/A   Overcast
8:35 AM 23.0 °F - 23.0 °F 100% 30.30 in - North - - N/A   Overcast
8:55 AM 23.0 °F - 23.0 °F 100% 30.30 in - North - - N/A   Overcast
9:15 AM 23.0 °F - 23.0 °F 100% 30.30 in - North - - N/A   Overcast
9:35 AM 24.8 °F - 23.0 °F 93% 30.29 in - North - - N/A   Overcast
9:55 AM 24.8 °F - 23.0 °F 93% 30.30 in - North - - N/A   Overcast
10:15 AM 24.8 °F - 23.0 °F 93% 30.32 in - North - - N/A   Overcast
10:35 AM 24.8 °F - 23.0 °F 93% 30.31 in - North - - N/A   Overcast
10:55 AM 26.6 °F - 23.0 °F 86% 30.31 in - North - - N/A   Overcast
11:15 AM 26.6 °F 7.7 °F 23.0 °F 86% 30.31 in - West 43.7 mph - N/A   Unknown
11:35 AM 26.6 °F 7.3 °F 23.0 °F 86% 30.30 in - West 46.0 mph 52.9 mph N/A   Unknown
11:55 AM 26.6 °F 7.1 °F 23.0 °F 86% 30.30 in - West 47.2 mph 56.4 mph N/A   Unknown
12:15 PM 28.4 °F 10.8 °F 23.0 °F 80% 30.30 in - West 40.3 mph 50.6 mph N/A   Unknown
12:35 PM 30.2 °F 14.1 °F 21.2 °F 69% 30.30 in - WSW 35.7 mph 46.0 mph N/A   Mostly Cloudy
1:15 PM 28.4 °F 11.0 °F 19.4 °F 69% 30.30 in - West 39.1 mph 49.5 mph N/A   Mostly Cloudy
1:35 PM 28.4 °F 11.0 °F 17.6 °F 64% 30.30 in - West 39.1 mph 49.5 mph N/A   Mostly Cloudy
1:55 PM 28.4 °F 12.5 °F 19.4 °F 69% 30.30 in - West 31.1 mph 39.1 mph N/A   Overcast
2:15 PM 28.4 °F 12.0 °F 19.4 °F 69% 30.31 in - West 33.4 mph 43.7 mph N/A   Overcast
2:35 PM 28.4 °F 13.0 °F 17.6 °F 64% 30.31 in - WSW 28.8 mph 40.3 mph N/A   Mostly Cloudy
2:55 PM 30.2 °F 14.9 °F 17.6 °F 60% 30.32 in - West 31.1 mph 43.7 mph N/A   Scattered Clouds
3:15 PM 30.2 °F 14.9 °F 19.4 °F 64% 30.33 in - West 31.1 mph 41.4 mph N/A   Scattered Clouds
3:35 PM 30.2 °F 14.7 °F 19.4 °F 64% 30.34 in - West 32.2 mph 38.0 mph N/A   Scattered Clouds
3:55 PM 28.4 °F 12.3 °F 17.6 °F 64% 30.35 in - West 32.2 mph 38.0 mph N/A   Mostly Cloudy
4:15 PM 28.4 °F 12.3 °F 17.6 °F 64% 30.35 in - West 32.2 mph 36.8 mph N/A   Mostly Cloudy
4:35 PM 28.4 °F 15.1 °F 17.6 °F 64% 30.35 in - WSW 20.7 mph 26.5 mph N/A   Overcast
4:55 PM 28.4 °F 13.5 °F 17.6 °F 64% 30.36 in - WSW 26.5 mph 31.1 mph N/A   Overcast
5:15 PM 26.6 °F 11.1 °F 17.6 °F 69% 30.37 in - West 26.5 mph - N/A   Mostly Cloudy
5:35 PM 26.6 °F 11.7 °F 17.6 °F 69% 30.38 in - West 24.2 mph - N/A   Overcast
5:55 PM 26.6 °F 11.1 °F 19.4 °F 74% 30.37 in - West 26.5 mph - N/A   Overcast
6:15 PM 26.6 °F 10.6 °F 19.4 °F 74% 30.37 in - West 28.8 mph - N/A   Overcast
6:35 PM 26.6 °F - 19.4 °F 74% 30.38 in - North - - N/A   Overcast
6:55 PM 24.8 °F 7.9 °F 19.4 °F 80% 30.38 in - West 29.9 mph - N/A   Mostly Cloudy
7:15 PM 26.6 °F 10.6 °F 19.4 °F 74% 30.39 in - West 28.8 mph - N/A   Overcast
7:35 PM 26.6 °F 10.0 °F 19.4 °F 74% 30.38 in - West 31.1 mph - N/A   Overcast
7:55 PM 24.8 °F 8.4 °F 19.4 °F 80% 30.39 in - West 27.6 mph - N/A   Mostly Cloudy
8:15 PM 23.0 °F 5.4 °F 19.4 °F 86% 30.38 in - West 29.9 mph - N/A   Scattered Clouds
8:35 PM 23.0 °F 5.7 °F 19.4 °F 86% 30.39 in - West 28.8 mph - N/A   Unknown
8:55 PM 23.0 °F - 19.4 °F 86% 30.39 in - North - - N/A   Mostly Cloudy
9:15 PM 23.0 °F 5.4 °F 19.4 °F 86% 30.40 in - West 29.9 mph - N/A   Overcast
9:35 PM 23.0 °F 5.7 °F 19.4 °F 86% 30.40 in - West 28.8 mph - N/A   Overcast
9:55 PM 23.0 °F 5.7 °F 19.4 °F 86% 30.40 in - West 28.8 mph - N/A   Overcast
10:15 PM 23.0 °F - 19.4 °F 86% 30.41 in - North - - N/A   Unknown
10:35 PM 21.2 °F - 19.4 °F 93% 30.41 in - North - - N/A   Unknown
10:55 PM 21.2 °F - 19.4 °F 93% 30.41 in - North - - N/A   Unknown
11:15 PM 21.2 °F - 19.4 °F 93% 30.42 in - North - - N/A   Unknown
11:35 PM 21.2 °F - 19.4 °F 93% 30.42 in - North - - N/A   Unknown
11:55 PM 21.2 °F - 19.4 °F 93% 30.42 in - North - - N/A   Unknown